QPF
0.02 0.02 0.02 0.02 0.05 0.08 0.12 0.17 0.19 0.13 0.09 0.09 0.09 0.07 0.06 0.04 0.03 0.03 0.02 0.02 0.02 0.02 0.03 0.03 0.05 0.05 0.06 0.07 0.07 0.06 0.06 0.08 0.10 0.11 0.10 0.08 0.06 0.05 0.04 0.04 0.06 0.07 0.09
0.04 0.04 0.03 0.05 0.06 0.07 0.09 0.16 0.17 0.11 0.08 0.06 0.06 0.05 0.04 0.03 0.03 0.02 0.02 0.02 0.02 0.02 0.02 0.02 0.03 0.04 0.05 0.06 0.06 0.06 0.07 0.07 0.07 0.09 0.10 0.08 0.07 0.06 0.04 0.05 0.06 0.07 0.08
0.04 0.06 0.08 0.07 0.07 0.07 0.07 0.08 0.09 0.06 0.05 0.04 0.05 0.05 0.05 0.04 0.03 0.03 0.04 0.03 0.03 0.03 0.03 0.02 0.03 0.04 0.05 0.06 0.05 0.06 0.07 0.06 0.06 0.08 0.09 0.10 0.10 0.08 0.06 0.05 0.04 0.04 0.05
0.06 0.09 0.09 0.09 0.09 0.07 0.07 0.11 0.08 0.04 0.04 0.05 0.06 0.07 0.07 0.06 0.06 0.06 0.06 0.05 0.06 0.06 0.05 0.04 0.03 0.04 0.04 0.04 0.04 0.05 0.06 0.06 0.06 0.07 0.07 0.08 0.09 0.08 0.06 0.06 0.05 0.05 0.05
0.04 0.07 0.08 0.08 0.08 0.07 0.09 0.14 0.10 0.06 0.07 0.06 0.07 0.07 0.06 0.05 0.06 0.06 0.06 0.05 0.05 0.05 0.05 0.03 0.02 0.03 0.04 0.04 0.04 0.05 0.05 0.05 0.05 0.05 0.05 0.05 0.06 0.07 0.06 0.06 0.07 0.06 0.05
0.06 0.04 0.04 0.05 0.05 0.04 0.05 0.10 0.10 0.07 0.07 0.07 0.07 0.05 0.04 0.04 0.05 0.06 0.05 0.05 0.05 0.06 0.06 0.03 0.03 0.03 0.03 0.03 0.03 0.03 0.04 0.05 0.05 0.05 0.05 0.05 0.05 0.05 0.05 0.05 0.05 0.06 0.06
0.02 0.01 0.02 0.05 0.04 0.04 0.04 0.04 0.04 0.04 0.05 0.05 0.04 0.04 0.03 0.04 0.05 0.06 0.05 0.05 0.06 0.05 0.04 0.03 0.02 0.02 0.03 0.03 0.03 0.03 0.03 0.04 0.04 0.05 0.06 0.05 0.05 0.05 0.05 0.05 0.04 0.04 0.05
0.01 0.01 0.02 0.06 0.06 0.04 0.04 0.03 0.04 0.04 0.04 0.03 0.03 0.02 0.03 0.03 0.03 0.06 0.10 0.08 0.07 0.06 0.05 0.03 0.03 0.03 0.03 0.02 0.03 0.03 0.03 0.04 0.04 0.04 0.05 0.05 0.04 0.04 0.04 0.04 0.06 0.07 0.07
0.01 0.02 0.02 0.03 0.05 0.05 0.04 0.04 0.04 0.04 0.03 0.03 0.03 0.02 0.02 0.02 0.02 0.04 0.06 0.07 0.05 0.03 0.03 0.03 0.03 0.03 0.03 0.02 0.02 0.03 0.03 0.05 0.05 0.04 0.04 0.04 0.03 0.03 0.04 0.04 0.05 0.06 0.06
0.02 0.02 0.02 0.02 0.03 0.05 0.05 0.05 0.05 0.04 0.03 0.03 0.03 0.02 0.02 0.02 0.02 0.02 0.02 0.04 0.04 0.04 0.03 0.02 0.02 0.02 0.02 0.02 0.03 0.03 0.03 0.03 0.03 0.03 0.03 0.03 0.03 0.03 0.03 0.04 0.04 0.05 0.05
0.02 0.02 0.04 0.03 0.02 0.03 0.03 0.04 0.04 0.04 0.03 0.03 0.02 0.02 0.02 0.03 0.03 0.02 0.02 0.02 0.02 0.03 0.02 0.02 0.01 0.01 0.02 0.02 0.04 0.03 0.03 0.03 0.03 0.02 0.02 0.02 0.02 0.04 0.03 0.04 0.04 0.05 0.05
0.03 0.05 0.06 0.05 0.04 0.03 0.03 0.04 0.05 0.04 0.03 0.02 0.02 0.03 0.03 0.03 0.03 0.02 0.02 0.01 0.02 0.02 0.02 0.02 0.01 0.01 0.01 0.02 0.03 0.02 0.02 0.03 0.02 0.02 0.02 0.02 0.02 0.04 0.04 0.04 0.04 0.05 0.06
0.05 0.06 0.06 0.04 0.03 0.03 0.03 0.04 0.04 0.05 0.04 0.04 0.03 0.03 0.02 0.02 0.02 0.03 0.02 0.01 0.01 0.01 0.01 0.01 0.01 0.01 0.01 0.01 0.01 0.02 0.02 0.02 0.02 0.02 0.02 0.02 0.02 0.03 0.04 0.04 0.04 0.04 0.04
0.04 0.04 0.04 0.03 0.03 0.03 0.03 0.03 0.03 0.04 0.04 0.03 0.02 0.02 0.03 0.02 0.02 0.02 0.02 0.01 0.01 0.01 0.01 0.01 0.01 0.01 0.01 0.01 0.01 0.01 0.01 0.01 0.02 0.02 0.02 0.02 0.02 0.03 0.04 0.04 0.04 0.04 0.03
0.03 0.02 0.02 0.01 0.02 0.02 0.02 0.03 0.04 0.04 0.03 0.02 0.02 0.01 0.02 0.02 0.02 0.03 0.03 0.02 0.02 0.01 0.01 0.01 0.01 0.01 0.01 0.01 0.01 0.01 0.02 0.03 0.03 0.03 0.02 0.02 0.01 0.01 0.02 0.02 0.03 0.03 0.04
0.02 0.02 0.02 0.02 0.03 0.03 0.04 0.05 0.06 0.05 0.04 0.03 0.03 0.03 0.03 0.02 0.02 0.02 0.02 0.02 0.03 0.02 0.02 0.01 0.02 0.02 0.01 0.01 0.01 0.01 0.04 0.04 0.04 0.03 0.02 0.01 0.01 0.01 0.01 0.01 0.02 0.02 0.03
0.02 0.02 0.03 0.03 0.05 0.05 0.05 0.06 0.06 0.05 0.05 0.04 0.04 0.04 0.03 0.02 0.02 0.02 0.03 0.05 0.04 0.03 0.03 0.02 0.03 0.03 0.01 0.01 0.02 0.02 0.04 0.05 0.03 0.02 0.02 0.01 0.01 0.01 0.02 0.02 0.02 0.02 0.02
0.02 0.04 0.05 0.06 0.05 0.04 0.05 0.06 0.06 0.05 0.05 0.05 0.04 0.03 0.03 0.03 0.03 0.03 0.03 0.05 0.05 0.04 0.03 0.03 0.03 0.03 0.02 0.02 0.03 0.03 0.03 0.04 0.03 0.02 0.02 0.02 0.02 0.01 0.02 0.03 0.03 0.04 0.04
0.05 0.06 0.06 0.07 0.06 0.05 0.04 0.04 0.05 0.04 0.04 0.04 0.04 0.02 0.02 0.02 0.03 0.03 0.03 0.04 0.04 0.03 0.03 0.03 0.03 0.03 0.02 0.02 0.02 0.02 0.02 0.03 0.03 0.02 0.02 0.02 0.02 0.01 0.02 0.03 0.05 0.05 0.04
0.04 0.06 0.08 0.09 0.08 0.07 0.05 0.05 0.06 0.05 0.04 0.03 0.03 0.03 0.02 0.03 0.03 0.03 0.04 0.04 0.03 0.03 0.03 0.03 0.02 0.02 0.02 0.02 0.01 0.01 0.02 0.03 0.03 0.03 0.02 0.02 0.02 0.03 0.03 0.03 0.05 0.05 0.04
0.08 0.09 0.10 0.09 0.09 0.08 0.07 0.07 0.06 0.04 0.03 0.04 0.05 0.06 0.05 0.04 0.03 0.03 0.04 0.03 0.02 0.02 0.03 0.04 0.03 0.02 0.02 0.02 0.01 0.01 0.01 0.02 0.02 0.02 0.03 0.03 0.04 0.04 0.04 0.04 0.04 0.04 0.04
0.06 0.07 0.08 0.07 0.07 0.07 0.06 0.05 0.03 0.02 0.02 0.04 0.06 0.07 0.06 0.03 0.02 0.01 0.02 0.02 0.02 0.02 0.02 0.02 0.02 0.02 0.01 0.01 0.01 0.02 0.01 0.01 0.02 0.02 0.01 0.02 0.03 0.04 0.06 0.06 0.06 0.05 0.04
0.05 0.05 0.05 0.05 0.06 0.06 0.05 0.05 0.03 0.02 0.03 0.04 0.05 0.05 0.03 0.02 0.02 0.01 0.02 0.01 0.01 0.01 0.00 0.00 0.01 0.01 0.01 0.00 0.01 0.01 0.01 0.01 0.01 0.01 0.01 0.01 0.02 0.02 0.03 0.03 0.03 0.02 0.04
0.05 0.05 0.05 0.06 0.05 0.05 0.06 0.08 0.06 0.04 0.04 0.04 0.03 0.03 0.03 0.03 0.02 0.01 0.01 0.01 0.01 0.01 0.01 0.00 0.01 0.01 0.01 0.00 0.01 0.02 0.02 0.02 0.02 0.02 0.01 0.01 0.01 0.02 0.02 0.02 0.02 0.02 0.03
0.04 0.04 0.05 0.05 0.04 0.04 0.06 0.07 0.07 0.05 0.04 0.03 0.02 0.02 0.02 0.02 0.01 0.01 0.00 0.00 0.00 0.00 0.00 0.00 0.00 0.01 0.01 0.00 0.01 0.02 0.02 0.02 0.02 0.02 0.02 0.02 0.02 0.02 0.02 0.02 0.02 0.02 0.02
0.03 0.04 0.04 0.04 0.03 0.03 0.03 0.05 0.06 0.05 0.04 0.02 0.02 0.02 0.01 0.01 0.01 0.01 0.00 0.00 0.00 0.00 0.00 0.00 0.00 0.00 0.00 0.00 0.01 0.01 0.02 0.02 0.01 0.01 0.02 0.02 0.01 0.01 0.02 0.02 0.01 0.01 0.01
MSLP
1007.38 1007.93 1008.49 1009.00 1009.46 1009.87 1010.26 1010.67 1011.10 1011.57 1012.07 1012.58 1013.06 1013.48 1013.82 1014.08 1014.28 1014.44 1014.61 1014.82 1015.10 1015.46 1015.87 1016.30 1016.70 1017.03 1017.26 1017.38 1017.40 1017.34 1017.25 1017.18 1017.15 1017.18 1017.26 1017.37 1017.50 1017.60 1017.65 1017.67 1017.64 1017.61 1017.58
1006.80 1007.37 1007.92 1008.43 1008.89 1009.30 1009.71 1010.14 1010.61 1011.14 1011.72 1012.30 1012.86 1013.35 1013.74 1014.03 1014.24 1014.40 1014.55 1014.75 1015.02 1015.36 1015.76 1016.19 1016.59 1016.92 1017.15 1017.27 1017.28 1017.23 1017.15 1017.09 1017.08 1017.14 1017.26 1017.42 1017.58 1017.72 1017.82 1017.86 1017.86 1017.84 1017.81
1006.44 1006.96 1007.47 1007.95 1008.37 1008.76 1009.16 1009.59 1010.09 1010.67 1011.30 1011.95 1012.57 1013.12 1013.56 1013.88 1014.10 1014.26 1014.40 1014.58 1014.83 1015.16 1015.55 1015.97 1016.37 1016.70 1016.93 1017.06 1017.09 1017.06 1017.01 1016.98 1017.01 1017.12 1017.28 1017.49 1017.71 1017.90 1018.05 1018.14 1018.17 1018.17 1018.16
1006.38 1006.82 1007.26 1007.66 1008.03 1008.38 1008.74 1009.17 1009.68 1010.27 1010.94 1011.63 1012.30 1012.89 1013.36 1013.71 1013.94 1014.09 1014.23 1014.39 1014.62 1014.92 1015.29 1015.69 1016.08 1016.41 1016.65 1016.80 1016.85 1016.86 1016.85 1016.87 1016.95 1017.10 1017.32 1017.58 1017.85 1018.09 1018.29 1018.42 1018.50 1018.54 1018.55
1006.64 1006.98 1007.33 1007.65 1007.95 1008.24 1008.56 1008.96 1009.46 1010.06 1010.74 1011.45 1012.14 1012.75 1013.24 1013.60 1013.84 1013.99 1014.11 1014.25 1014.45 1014.72 1015.06 1015.44 1015.80 1016.13 1016.37 1016.54 1016.63 1016.67 1016.71 1016.77 1016.90 1017.10 1017.35 1017.65 1017.95 1018.23 1018.46 1018.64 1018.76 1018.84 1018.89
1007.22 1007.44 1007.69 1007.93 1008.15 1008.39 1008.67 1009.04 1009.52 1010.10 1010.77 1011.47 1012.16 1012.77 1013.26 1013.62 1013.86 1014.00 1014.11 1014.23 1014.39 1014.63 1014.92 1015.26 1015.60 1015.91 1016.16 1016.33 1016.45 1016.53 1016.60 1016.70 1016.86 1017.08 1017.35 1017.66 1017.97 1018.26 1018.50 1018.71 1018.86 1018.99 1019.08
1008.01 1008.13 1008.29 1008.45 1008.61 1008.80 1009.05 1009.39 1009.84 1010.40 1011.05 1011.73 1012.39 1012.98 1013.45 1013.80 1014.02 1014.16 1014.24 1014.33 1014.47 1014.66 1014.92 1015.21 1015.52 1015.80 1016.04 1016.22 1016.35 1016.45 1016.54 1016.66 1016.83 1017.04 1017.30 1017.58 1017.87 1018.14 1018.38 1018.59 1018.76 1018.93 1019.08
1008.92 1008.95 1009.03 1009.13 1009.26 1009.42 1009.65 1009.97 1010.40 1010.94 1011.55 1012.19 1012.81 1013.36 1013.80 1014.12 1014.32 1014.44 1014.51 1014.58 1014.68 1014.84 1015.05 1015.30 1015.57 1015.83 1016.05 1016.23 1016.36 1016.46 1016.56 1016.67 1016.81 1016.99 1017.20 1017.43 1017.67 1017.89 1018.10 1018.29 1018.48 1018.68 1018.90
1009.85 1009.81 1009.84 1009.91 1010.02 1010.18 1010.41 1010.72 1011.14 1011.64 1012.21 1012.80 1013.37 1013.87 1014.27 1014.56 1014.73 1014.83 1014.88 1014.93 1015.01 1015.14 1015.32 1015.54 1015.77 1016.00 1016.20 1016.36 1016.48 1016.58 1016.66 1016.75 1016.85 1016.97 1017.11 1017.26 1017.42 1017.58 1017.74 1017.90 1018.09 1018.32 1018.58
1010.74 1010.66 1010.66 1010.72 1010.83 1011.01 1011.25 1011.57 1011.98 1012.46 1012.99 1013.52 1014.03 1014.47 1014.82 1015.07 1015.21 1015.29 1015.34 1015.38 1015.44 1015.56 1015.71 1015.90 1016.11 1016.31 1016.49 1016.63 1016.74 1016.81 1016.87 1016.91 1016.96 1017.01 1017.08 1017.14 1017.21 1017.29 1017.39 1017.52 1017.70 1017.93 1018.24
1011.59 1011.50 1011.49 1011.56 1011.69 1011.89 1012.16 1012.50 1012.91 1013.36 1013.84 1014.32 1014.76 1015.13 1015.42 1015.62 1015.74 1015.81 1015.85 1015.89 1015.96 1016.07 1016.21 1016.39 1016.58 1016.76 1016.91 1017.04 1017.12 1017.17 1017.19 1017.20 1017.19 1017.17 1017.16 1017.14 1017.13 1017.13 1017.17 1017.25 1017.40 1017.64 1017.97
1012.44 1012.35 1012.36 1012.45 1012.61 1012.85 1013.15 1013.50 1013.90 1014.33 1014.76 1015.17 1015.54 1015.84 1016.07 1016.22 1016.32 1016.37 1016.41 1016.46 1016.54 1016.65 1016.80 1016.97 1017.15 1017.31 1017.45 1017.55 1017.61 1017.64 1017.63 1017.59 1017.54 1017.46 1017.38 1017.29 1017.21 1017.14 1017.12 1017.16 1017.28 1017.51 1017.83
1013.36 1013.30 1013.33 1013.44 1013.64 1013.91 1014.23 1014.60 1014.99 1015.38 1015.75 1016.09 1016.38 1016.60 1016.77 1016.87 1016.94 1016.98 1017.02 1017.09 1017.18 1017.30 1017.45 1017.62 1017.79 1017.94 1018.06 1018.14 1018.18 1018.18 1018.14 1018.07 1017.98 1017.86 1017.73 1017.58 1017.44 1017.33 1017.25 1017.25 1017.33 1017.53 1017.83
1014.40 1014.38 1014.44 1014.58 1014.81 1015.10 1015.43 1015.79 1016.15 1016.50 1016.81 1017.07 1017.27 1017.41 1017.51 1017.56 1017.59 1017.63 1017.67 1017.75 1017.85 1017.99 1018.14 1018.31 1018.46 1018.59 1018.68 1018.74 1018.76 1018.73 1018.68 1018.58 1018.46 1018.31 1018.15 1017.97 1017.79 1017.63 1017.52 1017.47 1017.51 1017.66 1017.92
1015.58 1015.60 1015.69 1015.86 1016.10 1016.40 1016.72 1017.06 1017.38 1017.66 1017.90 1018.07 1018.18 1018.24 1018.27 1018.27 1018.27 1018.28 1018.33 1018.41 1018.53 1018.67 1018.82 1018.98 1019.11 1019.21 1019.28 1019.31 1019.30 1019.25 1019.17 1019.06 1018.92 1018.76 1018.57 1018.37 1018.17 1017.98 1017.83 1017.73 1017.73 1017.82 1018.03
1016.86 1016.92 1017.04 1017.22 1017.47 1017.75 1018.05 1018.34 1018.60 1018.81 1018.96 1019.04 1019.06 1019.04 1019.00 1018.95 1018.92 1018.92 1018.96 1019.04 1019.16 1019.30 1019.45 1019.58 1019.69 1019.77 1019.80 1019.80 1019.76 1019.68 1019.58 1019.46 1019.31 1019.14 1018.94 1018.73 1018.51 1018.29 1018.11 1017.97 1017.91 1017.95 1018.09
1018.15 1018.25 1018.39 1018.57 1018.79 1019.04 1019.29 1019.52 1019.71 1019.84 1019.90 1019.90 1019.84 1019.75 1019.64 1019.55 1019.48 1019.47 1019.51 1019.59 1019.71 1019.84 1019.97 1020.09 1020.17 1020.21 1020.21 1020.17 1020.10 1020.01 1019.89 1019.76 1019.60 1019.43 1019.23 1019.01 1018.77 1018.54 1018.32 1018.15 1018.04 1018.01 1018.08
1019.34 1019.47 1019.60 1019.77 1019.96 1020.16 1020.34 1020.51 1020.61 1020.66 1020.64 1020.56 1020.43 1020.28 1020.13 1020.01 1019.93 1019.90 1019.94 1020.02 1020.13 1020.26 1020.39 1020.48 1020.54 1020.55 1020.52 1020.46 1020.36 1020.25 1020.12 1019.97 1019.82 1019.64 1019.44 1019.22 1018.97 1018.72 1018.48 1018.26 1018.11 1018.03 1018.04
1020.32 1020.45 1020.57 1020.71 1020.85 1020.98 1021.10 1021.19 1021.23 1021.20 1021.12 1020.98 1020.81 1020.62 1020.45 1020.31 1020.23 1020.21 1020.24 1020.33 1020.45 1020.58 1020.69 1020.78 1020.82 1020.82 1020.77 1020.69 1020.58 1020.45 1020.31 1020.17 1020.01 1019.84 1019.64 1019.41 1019.16 1018.89 1018.62 1018.38 1018.18 1018.06 1018.02
1021.00 1021.13 1021.23 1021.32 1021.40 1021.47 1021.53 1021.55 1021.53 1021.46 1021.34 1021.17 1020.98 1020.79 1020.62 1020.49 1020.42 1020.41 1020.46 1020.56 1020.69 1020.82 1020.94 1021.02 1021.06 1021.05 1021.00 1020.92 1020.80 1020.68 1020.54 1020.39 1020.24 1020.06 1019.86 1019.63 1019.38 1019.10 1018.82 1018.56 1018.34 1018.18 1018.10
1021.39 1021.48 1021.55 1021.59 1021.61 1021.63 1021.64 1021.62 1021.56 1021.47 1021.34 1021.19 1021.01 1020.84 1020.69 1020.59 1020.54 1020.56 1020.63 1020.75 1020.89 1021.04 1021.17 1021.26 1021.31 1021.31 1021.27 1021.19 1021.08 1020.96 1020.83 1020.69 1020.53 1020.36 1020.16 1019.93 1019.67 1019.39 1019.10 1018.83 1018.60 1018.42 1018.32
1021.50 1021.56 1021.58 1021.57 1021.56 1021.54 1021.51 1021.48 1021.42 1021.34 1021.24 1021.12 1020.98 1020.85 1020.75 1020.69 1020.68 1020.72 1020.82 1020.96 1021.12 1021.28 1021.42 1021.53 1021.60 1021.62 1021.59 1021.53 1021.43 1021.32 1021.19 1021.04 1020.88 1020.70 1020.50 1020.27 1020.01 1019.74 1019.46 1019.19 1018.96 1018.78 1018.67
1021.40 1021.43 1021.41 1021.37 1021.32 1021.29 1021.26 1021.24 1021.21 1021.18 1021.12 1021.06 1020.99 1020.92 1020.87 1020.85 1020.88 1020.95 1021.07 1021.22 1021.39 1021.56 1021.72 1021.84 1021.92 1021.96 1021.95 1021.90 1021.82 1021.70 1021.57 1021.42 1021.24 1021.05 1020.84 1020.60 1020.35 1020.08 1019.81 1019.57 1019.35 1019.19 1019.08
1021.19 1021.18 1021.14 1021.08 1021.04 1021.01 1021.01 1021.02 1021.05 1021.07 1021.09 1021.09 1021.09 1021.08 1021.09 1021.11 1021.16 1021.25 1021.37 1021.52 1021.69 1021.86 1022.02 1022.16 1022.25 1022.30 1022.30 1022.26 1022.17 1022.05 1021.90 1021.72 1021.53 1021.31 1021.08 1020.83 1020.58 1020.32 1020.08 1019.86 1019.67 1019.52 1019.43
1020.95 1020.92 1020.87 1020.82 1020.79 1020.80 1020.83 1020.90 1020.99 1021.08 1021.17 1021.24 1021.30 1021.34 1021.38 1021.43 1021.49 1021.57 1021.69 1021.82 1021.98 1022.14 1022.29 1022.42 1022.52 1022.56 1022.56 1022.51 1022.41 1022.27 1022.09 1021.88 1021.65 1021.40 1021.14 1020.87 1020.62 1020.37 1020.15 1019.96 1019.81 1019.70 1019.62
1020.73 1020.71 1020.68 1020.65 1020.65 1020.70 1020.79 1020.91 1021.06 1021.21 1021.36 1021.48 1021.57 1021.64 1021.69 1021.74 1021.79 1021.85 1021.94 1022.04 1022.17 1022.31 1022.44 1022.56 1022.64 1022.68 1022.67 1022.60 1022.48 1022.30 1022.08 1021.83 1021.54 1021.25 1020.96 1020.68 1020.41 1020.18 1019.98 1019.83 1019.71 1019.63 1019.58
Thickness
5736 5733 5728 5724 5719 5715 5711 5708 5704 5702 5699 5697 5693 5691 5689 5689 5687 5685 5683 5682 5681 5680 5680 5680 5679 5679 5678 5677 5677 5676 5677 5677 5678 5676 5675 5678 5680 5679 5679 5679 5678 5677 5677
5731 5726 5720 5716 5713 5709 5705 5702 5699 5695 5693 5691 5688 5686 5685 5683 5681 5679 5677 5675 5673 5672 5673 5671 5672 5671 5671 5670 5669 5669 5669 5669 5670 5667 5665 5664 5666 5668 5672 5671 5669 5669 5669
5727 5721 5716 5711 5708 5703 5700 5698 5694 5690 5687 5685 5683 5681 5679 5676 5674 5672 5670 5667 5666 5665 5664 5663 5663 5663 5663 5662 5662 5661 5661 5660 5662 5662 5658 5654 5653 5655 5658 5660 5660 5660 5660
5727 5719 5712 5707 5703 5699 5696 5692 5688 5684 5682 5680 5677 5673 5670 5667 5665 5664 5662 5660 5659 5657 5656 5655 5655 5654 5654 5654 5654 5653 5653 5653 5652 5654 5654 5652 5651 5646 5644 5648 5650 5651 5651
5724 5716 5710 5705 5701 5696 5691 5686 5682 5678 5675 5673 5670 5667 5664 5662 5660 5657 5655 5653 5652 5650 5649 5648 5647 5646 5646 5646 5645 5645 5645 5645 5644 5643 5644 5644 5644 5643 5639 5636 5638 5640 5642
5722 5714 5708 5702 5696 5691 5685 5681 5675 5672 5669 5666 5663 5659 5656 5654 5651 5648 5646 5645 5644 5642 5640 5640 5639 5638 5638 5637 5637 5637 5637 5637 5636 5636 5635 5635 5634 5633 5632 5630 5629 5630 5632
5716 5708 5702 5695 5689 5684 5679 5675 5670 5665 5662 5658 5655 5651 5648 5645 5642 5639 5638 5636 5635 5632 5631 5630 5630 5630 5630 5630 5630 5630 5630 5629 5628 5628 5628 5627 5627 5628 5626 5624 5622 5622 5623
5714 5706 5699 5692 5684 5680 5675 5670 5664 5659 5655 5651 5646 5644 5640 5637 5633 5630 5629 5627 5625 5623 5622 5621 5621 5622 5622 5622 5622 5622 5622 5621 5620 5620 5620 5619 5620 5620 5620 5618 5615 5613 5614
5710 5702 5694 5688 5681 5676 5670 5664 5658 5653 5648 5644 5639 5636 5632 5629 5625 5622 5620 5618 5615 5615 5613 5613 5613 5613 5613 5613 5614 5613 5613 5613 5612 5612 5612 5611 5612 5612 5612 5612 5610 5607 5604
5705 5698 5691 5684 5677 5671 5664 5659 5653 5647 5642 5637 5632 5628 5624 5621 5617 5614 5610 5608 5606 5605 5605 5605 5604 5604 5604 5605 5604 5604 5604 5604 5604 5604 5603 5603 5603 5603 5603 5604 5603 5603 5601
5697 5690 5683 5677 5671 5665 5658 5650 5645 5640 5635 5630 5625 5620 5616 5613 5610 5606 5604 5601 5598 5597 5597 5597 5596 5596 5596 5596 5595 5595 5595 5595 5595 5595 5594 5594 5594 5594 5594 5595 5595 5594 5594
5689 5681 5674 5668 5662 5656 5650 5644 5638 5632 5627 5622 5617 5613 5609 5606 5602 5599 5596 5594 5592 5591 5591 5590 5589 5588 5588 5587 5587 5587 5587 5586 5586 5586 5585 5585 5586 5585 5586 5586 5587 5586 5586
5680 5673 5666 5660 5655 5649 5643 5637 5631 5626 5621 5616 5611 5606 5602 5598 5594 5591 5589 5587 5585 5584 5583 5583 5582 5581 5581 5580 5580 5579 5579 5578 5578 5577 5577 5577 5577 5576 5577 5578 5578 5579 5580
5672 5666 5659 5654 5648 5642 5637 5631 5626 5621 5616 5611 5605 5600 5596 5592 5588 5586 5583 5581 5580 5578 5577 5576 5575 5575 5574 5572 5571 5571 5571 5571 5571 5570 5570 5569 5569 5569 5569 5570 5570 5571 5571
5665 5659 5653 5647 5641 5635 5630 5625 5620 5615 5610 5605 5600 5595 5591 5587 5584 5581 5579 5576 5575 5574 5572 5572 5570 5569 5568 5564 5563 5563 5565 5565 5565 5564 5564 5563 5563 5562 5562 5563 5563 5564 5565
5660 5654 5648 5641 5635 5629 5624 5618 5613 5609 5604 5599 5595 5591 5587 5583 5580 5577 5575 5573 5571 5570 5568 5567 5566 5564 5561 5558 5557 5556 5558 5559 5559 5559 5559 5558 5558 5557 5557 5557 5558 5559 5560
5655 5648 5642 5635 5629 5623 5618 5612 5608 5604 5599 5595 5590 5587 5583 5579 5576 5574 5571 5569 5567 5566 5564 5563 5561 5559 5556 5554 5553 5553 5554 5555 5555 5555 5555 5556 5555 5554 5553 5554 5555 5556 5557
5649 5642 5635 5629 5624 5618 5613 5608 5604 5599 5594 5590 5587 5583 5580 5577 5574 5571 5568 5566 5564 5562 5561 5560 5558 5556 5553 5551 5551 5551 5553 5553 5553 5552 5551 5551 5550 5550 5550 5552 5554 5554 5555
5643 5636 5629 5623 5618 5614 5609 5604 5599 5594 5590 5587 5583 5580 5577 5574 5571 5568 5565 5563 5562 5560 5559 5558 5556 5554 5551 5550 5550 5549 5551 5551 5551 5550 5549 5549 5548 5547 5548 5549 5551 5552 5553
5636 5630 5624 5619 5614 5609 5605 5599 5594 5591 5587 5585 5581 5578 5575 5572 5569 5566 5563 5562 5561 5559 5558 5557 5556 5554 5552 5550 5549 5549 5551 5550 5549 5548 5548 5547 5546 5546 5546 5547 5548 5549 5551
5630 5625 5619 5614 5610 5605 5600 5596 5592 5588 5586 5583 5580 5576 5573 5570 5568 5565 5563 5561 5560 5559 5558 5557 5556 5555 5553 5551 5549 5549 5550 5550 5549 5549 5548 5547 5546 5546 5546 5546 5547 5549 5550
5625 5620 5614 5609 5605 5602 5597 5593 5589 5587 5584 5581 5577 5574 5572 5570 5568 5565 5563 5562 5561 5560 5559 5558 5557 5556 5555 5553 5551 5550 5549 5549 5549 5549 5549 5547 5546 5547 5547 5548 5549 5550 5551
5622 5617 5611 5606 5602 5599 5596 5591 5588 5586 5583 5579 5576 5574 5572 5570 5568 5566 5565 5564 5563 5562 5562 5561 5560 5559 5558 5555 5554 5552 5552 5551 5549 5550 5549 5549 5548 5549 5550 5552 5552 5553 5554
5619 5614 5609 5604 5600 5597 5594 5590 5588 5585 5582 5579 5576 5574 5572 5571 5570 5568 5568 5567 5565 5564 5564 5563 5562 5561 5560 5558 5556 5556 5554 5553 5552 5552 5553 5553 5553 5553 5554 5555 5556 5557 5558
5617 5613 5608 5603 5599 5595 5592 5589 5587 5584 5581 5578 5576 5576 5575 5574 5572 5570 5568 5568 5566 5565 5564 5564 5563 5562 5561 5557 5555 5555 5556 5555 5554 5553 5556 5558 5559 5560 5561 5562 5563 5563 5563
5615 5611 5607 5603 5599 5595 5592 5590 5587 5585 5582 5579 5578 5578 5578 5577 5576 5574 5572 5569 5568 5566 5565 5564 5564 5563 5562 5560 5560 5559 5559 5558 5557 5557 5560 5563 5565 5566 5567 5568 5568 5568 5568